Simultaneous Nadir Overpasses (SNOs) Predictions

Prediction of SNOs between AQUA and METOP-A Satellite Orbit:

Table of predicted SNOs for the next 14.0 days since TLE Epoch: 8/11/2018
Index Date (AQUA) Time (AQUA) Lat,Lon (AQUA) SZA (AQUA ) Date (METOP-A) Time (METOP-A) Lat,Lon (METOP-A) SZA (METOP-A ) Distance(km) Time Diff (sec)
1 08/13/2018 15:00:58 74.26, -51.85 59.78 08/13/2018 14:59:47 74.22, -52.90 59.80 32.08 71
2 08/13/2018 15:50:29 -74.53, 115.16 119.92 08/13/2018 15:50:23 -74.51, 115.19 119.93 1.69 6
3 08/13/2018 16:39:57 74.57, -77.30 60.14 08/13/2018 16:41:01 74.58, -77.30 60.15 1.82 64
4 08/16/2018 10:35:13 74.42, 14.23 60.82 08/16/2018 10:34:00 74.34, 13.82 60.78 15.04 73
5 08/16/2018 11:24:41 -74.53,-178.41 119.04 08/16/2018 11:24:38 -74.54,-178.34 119.04 2.44 3
6 08/16/2018 12:14:09 74.57, -10.87 61.01 08/16/2018 12:15:17 74.55, -10.96 60.99 3.24 68
7 08/19/2018 06:09:27 74.47, 80.53 61.79 08/19/2018 06:08:14 74.46, 80.53 61.78 2.06 73
8 08/19/2018 06:58:54 -74.54,-111.99 118.14 08/19/2018 06:58:55 -74.51,-111.99 118.16 2.75 1
9 08/19/2018 07:48:22 74.58, 55.56 61.92 08/19/2018 07:49:33 74.57, 55.50 61.91 1.83 71
10 08/22/2018 01:43:40 74.49, 146.94 62.72 08/22/2018 01:42:30 74.47, 146.98 62.72 1.84 70
11 08/22/2018 02:33:07 -74.55, -45.58 117.20 08/22/2018 02:33:11 -74.54, -45.53 117.22 2.39 4
12 08/22/2018 03:22:36 74.64, 121.85 62.91 08/22/2018 03:23:48 74.64, 122.08 62.89 6.96 72
13 08/24/2018 21:17:52 74.50,-146.66 63.69 08/24/2018 21:16:45 74.49,-146.57 63.68 3.01 67
14 08/24/2018 22:07:19 -74.57, 20.82 116.23 08/24/2018 22:07:26 -74.55, 20.92 116.25 3.67 7




NCC Satellite Simultaneous Nadir Overpasses (SNOs) Prediction Service
